Location: Brownlee
(50.7397°N, 106.0159°W)
Time: 19:03:05
(UTC+00:00)

ISS - Visible Passes

Search period start: 09 December 2022 00:00
Search period end: 19 December 2022 00:00
Orbit: 414 x 420 km, 51.6° (Epoch: 09 December)

Date Brightness Start Highest point End Pass type
(mag) Time Alt. Az. Time Alt. Az. Time Alt. Az.
16 Dec -0.6 14:10:19 10° S 14:12:32 17° SE 14:14:45 10° E visible
17 Dec -0.3 13:23:21 10° SSE 13:24:18 11° SE 13:25:15 10° ESE visible
18 Dec -1.8 14:08:58 10° SW 14:12:00 32° SSE 14:15:03 10° E visible
